Fort Drum, NY

5:00 AM EDT on October 18, 2019 (GMT -0400)
Wheeler-Sack Army Air Field

Weather History for KGTB - September, 2019

Change the Weather History Date:

Tuesday, September 17, 2019

  Actual Average Record
Temperature  
Mean Temperature 56 °F -  
Max Temperature 70 °F 68 °F 82 °F (2015)
Min Temperature 43 °F 48 °F 34 °F (2013)
Degree Days  
Heating Degree Days 9    
Growing Degree Days 6 (Base 50)    
Moisture  
Dew Point 46 °F    
Average Humidity 70    
Maximum Humidity 94    
Minimum Humidity 38    
Precipitation  
Precipitation 0.00 in - - ()
Sea Level Pressure  
Sea Level Pressure 30.20 in    
Wind  
Wind Speed 3 mph (ENE)    
Max Wind Speed 12 mph    
Max Gust Speed -    
Visibility 10 miles    
Events      
Averages and records for this station are not official NWS values.
T = Trace of Precipitation, MM = Missing Value Source: NWS Daily Summary

Daily Weather History Graph

Daily Weather History Graph

Search for Another Location

Airport or City:

Astronomy

Sep. 17, 2019 Rise Set
Actual Time 6:44 AM EDT 7:10 PM EDT
Civil Twilight 6:15 AM EDT 7:38 PM EDT
Nautical Twilight 5:40 AM EDT 8:13 PM EDT
Astronomical Twilight 5:05 AM EDT 8:48 PM EDT
Moon 9:05 PM EDT (9/17) 9:51 AM EDT (9/17)
Length of Visible Light 13h 23m
Length of Day
12h 25m
Waning Gibbous, 89% of the Moon is Illuminated
Sep 17
Waning Gibbous
Sep 21
Last Quarter
Sep 28
New
Oct 5
First Quarter
Oct 13
Full

Hourly Weather History & Observations

Time (EDT) Temp. Dew Point Humidity Pressure Visibility Wind Dir Wind Speed Gust Speed Precip Events Conditions
12:56 AM 47.8 °F 45.7 °F 92% 30.16 in 10.0 mi South 3.5 mph - N/A   Clear
1:56 AM 47.5 °F 45.0 °F 91% 30.16 in 10.0 mi South 3.5 mph - N/A   Clear
2:56 AM 46.8 °F 44.8 °F 93% 30.16 in 10.0 mi Calm Calm - N/A   Clear
3:56 AM 44.8 °F 42.8 °F 93% 30.16 in 10.0 mi Calm Calm - N/A   Clear
4:56 AM 43.9 °F 42.3 °F 94% 30.16 in 10.0 mi Calm Calm - N/A   Clear
5:56 AM 43.5 °F 41.9 °F 94% 30.18 in 10.0 mi Calm Calm - N/A   Clear
6:56 AM 44.8 °F 42.8 °F 93% 30.19 in 10.0 mi Calm Calm - N/A   Clear
7:56 AM 48.2 °F 45.3 °F 90% 30.21 in 10.0 mi South 3.5 mph - N/A   Clear
8:56 AM 53.4 °F 49.6 °F 87% 30.22 in 10.0 mi Calm Calm - N/A   Clear
9:56 AM 59.0 °F 50.0 °F 72% 30.23 in 10.0 mi Calm Calm - N/A   Clear
10:23 AM 60.8 °F 50.0 °F 68% 30.23 in 10.0 mi Calm Calm - N/A   Partly Cloudy
10:56 AM 63.5 °F 51.1 °F 64% 30.23 in 10.0 mi NNW 3.5 mph - N/A   Clear
11:56 AM 66.4 °F 46.0 °F 48% 30.23 in 10.0 mi NNE 8.1 mph - N/A   Clear
12:56 PM 68.2 °F 44.8 °F 43% 30.22 in 10.0 mi NNE 6.9 mph - N/A   Clear
1:56 PM 69.3 °F 42.6 °F 38% 30.21 in 10.0 mi North 9.2 mph - N/A   Clear
2:56 PM 69.6 °F 44.2 °F 40% 30.21 in 10.0 mi NNE 11.5 mph - N/A   Clear
3:56 PM 69.8 °F 43.0 °F 38% 30.20 in 10.0 mi NE 9.2 mph - N/A   Clear
4:56 PM 69.3 °F 43.9 °F 40% 30.20 in 10.0 mi NE 9.2 mph - N/A   Clear
5:56 PM 68.0 °F 44.6 °F 43% 30.20 in 10.0 mi NE 9.2 mph - N/A   Clear
6:56 PM 64.2 °F 47.7 °F 55% 30.20 in 10.0 mi East 6.9 mph - N/A   Clear
7:56 PM 61.0 °F 46.6 °F 59% 30.21 in 10.0 mi East 4.6 mph - N/A   Clear
8:56 PM 53.8 °F 49.5 °F 85% 30.21 in 10.0 mi Calm Calm - N/A   Clear
9:56 PM 55.2 °F 48.6 °F 78% 30.22 in 10.0 mi Calm Calm - N/A   Clear
10:56 PM 54.7 °F 46.6 °F 74% 30.22 in 10.0 mi SE 5.8 mph - N/A   Clear
11:56 PM 53.2 °F 45.5 °F 75% 30.22 in 10.0 mi SE 5.8 mph - N/A   Clear